Total_Precipitation_Accumulation
0.01 0.00 0.00 0.02 0.13 0.21 0.15 0.12 0.21 0.18 0.20 0.12 0.09 0.10 0.06 0.01 0.01 0.00 0.00 0.02 0.03 0.04
0.00 0.00 0.01 0.06 0.12 0.14 0.14 0.11 0.19 0.23 0.19 0.13 0.13 0.10 0.06 0.03 0.00 0.00 0.01 0.01 0.02 0.01
0.00 0.00 0.04 0.05 0.10 0.16 0.23 0.29 0.35 0.30 0.21 0.16 0.12 0.09 0.06 0.02 0.01 0.01 0.02 0.02 0.01 0.01
0.06 0.11 0.29 0.34 0.31 0.34 0.38 0.38 0.31 0.20 0.13 0.07 0.05 0.02 0.00 0.00 0.01 0.02 0.02 0.01 0.02 0.02
0.35 0.58 1.15 1.16 0.97 1.10 1.02 0.56 0.15 0.08 0.07 0.05 0.03 0.02 0.00 0.01 0.01 0.01 0.02 0.03 0.02 0.02
0.46 0.60 0.72 0.47 0.32 0.30 0.41 0.24 0.03 0.02 0.03 0.03 0.02 0.01 0.00 0.01 0.01 0.01 0.01 0.02 0.02 0.02
0.12 0.16 0.20 0.17 0.14 0.11 0.07 0.09 0.05 0.03 0.03 0.01 0.00 0.00 0.00 0.00 0.00 0.01 0.01 0.01 0.01 0.00
0.11 0.10 0.11 0.07 0.05 0.04 0.05 0.06 0.04 0.03 0.02 0.01 0.00 0.01 0.01 0.00 0.00 0.00 0.00 0.00 0.00 0.00
0.07 0.06 0.06 0.03 0.02 0.02 0.03 0.02 0.01 0.01 0.00 0.01 0.00 0.02 0.01 0.00 0.00 0.00 0.00 0.00 0.00 0.00
0.04 0.05 0.04 0.04 0.02 0.01 0.00 0.00 0.00 0.00 0.00 0.00 0.00 0.01 0.00 0.00 0.00 0.00 0.00 0.00 0.00 0.00
0.03 0.03 0.03 0.01 0.00 0.00 0.00 0.00 0.00 0.00 0.00 0.00 0.00 0.00 0.00 0.00 0.00 0.00 0.00 0.00 0.00 0.00
0.02 0.02 0.01 0.00 0.00 0.00 0.00 0.00 0.00 0.00 0.00 0.00 0.00 0.00 0.00 0.00 0.00 0.00 0.00 0.00 0.00 0.00
0.00 0.00 0.00 0.00 0.00 0.00 0.00 0.00 0.00 0.00 0.00 0.00 0.00 0.00 0.00 0.00 0.00 0.00 0.00 0.00 0.00 0.00
0.00 0.00 0.00 0.00 0.00 0.00 0.00 0.00 0.00 0.00 0.00 0.00 0.00 0.00 0.00 0.00 0.00 0.00 0.00 0.00 0.00 0.00